[[{"header":{"parameterUnit":"m.s-1","parameterCategory":1,"la1":30.2991,"la2":30.254,"lo1":-89.0895,"lo2":-89.0444,"dy":0.0017,"dx":0.0017,"nx":28,"ny":28,"refTime":"2024-05-03T21:00:00:Z","depth":0,"parameterNumber":2,"parameterNumberName":"U-component_of_WINDS"},"data":[0,0,0,0,0,0,0,0,0,0,0,0,0,0,0,0,0,0,0,0,0,0,0,0,0,0,0,0,0,0,0,0,0,0,0,0,0,0,0,0,0,0,0,0,0,0,0,0,0,0,0,0,0,0,0,0,0,0,-1.6678,-1.6678,0,-1.6687,-1.6687,-1.6688,-1.6655,-1.6654,-1.6653,-1.6652,-1.6663,-1.6664,-1.6665,0,0,0,0,0,0,0,0,0,0,0,0,0,-1.6636,-1.6637,-1.6678,-1.6678,-1.6679,-1.6687,-1.6687,-1.6688,-1.6655,-1.6654,-1.6653,-1.6652,-1.6662,-1.6664,-1.6665,0,0,0,0,0,0,0,0,0,0,0,0,0,-1.665,-1.6637,-1.6678,-1.6664,-1.6662,-1.6687,-1.6687,-1.6688,-1.6656,-1.6654,-1.6653,-1.6651,-1.6662,-1.6663,-1.6665,-1.6705,0,0,-1.667,-1.6671,0,0,0,0,0,0,0,0,-1.665,-1.6652,-1.6666,-1.6665,-1.6663,-1.6669,-1.6676,-1.6693,-1.6656,-1.6658,-1.6652,-1.6651,-1.6666,-1.6667,-1.6672,-1.6705,-1.6706,-1.6671,-1.6672,-1.6672,-1.6673,0,0,0,0,0,0,0,-1.6649,-1.6651,-1.6682,-1.6666,-1.6664,-1.6657,-1.6658,-1.6679,-1.667,-1.6658,-1.6656,-1.6657,-1.6665,-1.667,-1.6672,-1.6706,-1.6671,-1.6672,-1.6673,-1.6674,-1.6774,-1.6775,0,0,0,0,0,0,-1.6649,-1.6651,-1.6682,-1.6682,-1.6653,-1.6659,-1.666,-1.6668,-1.667,-1.6669,-1.6658,-1.6656,-1.6668,-1.667,-1.6672,-1.6719,-1.6672,-1.6674,-1.6675,-1.6772,-1.6774,-1.6776,0,0,0,0,0,0,-1.6649,-1.6652,-1.6681,-1.6666,-1.6669,-1.6661,-1.6672,-1.6669,-1.6675,-1.667,-1.6668,-1.6665,-1.6667,-1.667,-1.6697,-1.6719,-1.6675,-1.6676,-1.677,-1.6773,-1.6775,-1.6813,0,0,0,0,0,0,-1.6647,-1.6652,-1.6667,-1.6666,-1.667,-1.6705,-1.6673,-1.6671,-1.6678,-1.6674,-1.6676,-1.6675,-1.6666,-1.6695,-1.6699,-1.6721,-1.6678,-1.6768,-1.6772,-1.6774,-1.681,-1.6816,-1.6822,0,0,0,0,0,-1.6646,-1.6677,-1.6667,-1.6671,-1.6688,-1.6707,-1.6709,-1.6697,-1.668,-1.6694,-1.6692,-1.6675,-1.6717,-1.6698,-1.6702,-1.6725,-1.6767,-1.6771,-1.6774,-1.6807,-1.6815,-1.6822,0,0,0,0,0,0,-1.6679,-1.6676,-1.6666,-1.6697,-1.6703,-1.6701,-1.6719,-1.6706,-1.6717,-1.6713,-1.6699,-1.67,-1.673,-1.673,-1.671,-1.6764,-1.6739,-1.6743,-1.6762,-1.677,-1.6776,-1.6774,-1.6679,0,0,0,0,0,-1.6691,-1.6706,-1.6703,-1.6731,-1.6734,-1.6727,-1.6734,-1.6725,-1.673,-1.6732,-1.6731,-1.6737,-1.6751,-1.6761,-1.6774,-1.6811,-1.6811,-1.6829,-1.6835,-1.684,-1.6843,-1.6864,-1.6871,-1.6788,-1.6788,-1.6788,0,0,-1.6713,-1.6714,-1.6724,-1.6738,-1.674,-1.6757,-1.6728,-1.6747,-1.6759,-1.6735,-1.676,-1.6761,-1.6766,-1.6799,-1.6813,-1.68,-1.6867,-1.6844,-1.6848,-1.6849,-1.6868,-1.6876,-1.6883,-1.679,-1.679,-1.679,0,0,-1.6763,-1.6765,-1.6789,-1.6793,-1.6798,-1.6793,-1.6799,-1.68,-1.6799,-1.6825,-1.6807,-1.6823,-1.6847,-1.6852,-1.6858,-1.6913,-1.6898,-1.6918,-1.6949,-1.6969,-1.6975,-1.6981,-1.7,-1.7007,-1.6922,-1.6922,-1.6922,0,-1.6791,-1.6814,-1.6803,-1.6823,-1.683,-1.681,-1.6834,-1.6839,-1.6848,-1.6853,-1.6839,-1.6871,-1.6873,-1.6907,-1.692,-1.6926,-1.6932,-1.6916,-1.6975,-1.6981,-1.6986,-1.7004,-1.7012,-1.6924,-1.6924,-1.6924,-1.6923,0,-1.6848,-1.6865,-1.6884,-1.6894,-1.6903,-1.6925,-1.6918,-1.6929,-1.692,-1.6917,-1.6945,-1.6947,-1.6961,-1.6968,-1.696,-1.7001,-1.6993,-1.6978,-1.6951,-1.6997,-1.7013,-1.702,-1.6927,-1.6926,-1.6926,-1.6925,0,0,-1.6917,-1.6921,-1.6928,-1.6932,-1.6938,-1.6951,-1.6973,-1.6986,-1.6996,-1.7004,-1.7023,-1.7045,-1.7031,-1.7038,-1.7031,-1.7048,-1.7091,-1.703,-1.703,-1.7041,-1.7137,-1.7148,-1.7156,-1.7083,-1.7084,-1.7085,-1.7137,0,-1.6965,-1.7002,-1.6993,-1.703,-1.7046,-1.7029,-1.7048,-1.7054,-1.7053,-1.7067,-1.7066,-1.7082,-1.7063,-1.7067,-1.7084,-1.7082,-1.711,-1.7079,-1.71,-1.71,-1.7097,-1.7165,-1.7176,-1.7225,-1.7143,-1.7144,-1.7145,0,-1.7026,-1.7036,-1.7075,-1.7078,-1.7085,-1.7102,-1.7114,-1.7128,-1.7135,-1.7133,-1.7142,-1.7131,-1.7155,-1.713,-1.7162,-1.7141,-1.7149,-1.7151,-1.7152,-1.7152,-1.7124,-1.7166,-1.724,-1.7247,-1.7156,-1.7155,-1.7154,0,-1.7071,-1.7095,-1.7121,-1.7126,-1.7131,-1.7144,-1.7147,-1.7152,-1.7161,-1.7173,-1.7178,-1.7193,-1.72,-1.7212,-1.7206,-1.7188,-1.7239,-1.7214,-1.7238,-1.7238,-1.7247,-1.7247,-1.7322,-1.7256,-1.7255,-1.7255,-1.7255,0,-1.7125,-1.7149,-1.7141,-1.7157,-1.7184,-1.7175,-1.7203,-1.7204,-1.721,-1.7226,-1.7213,-1.7229,-1.722,-1.7236,-1.7232,-1.726,-1.7263,-1.7262,-1.7261,-1.7263,-1.7263,-1.7267,-1.7263,-1.7257,-1.7257,-1.7256,-1.7256,0,-1.7179,-1.7175,-1.7202,-1.7206,-1.7207,-1.7227,-1.723,-1.7246,-1.7244,-1.7266,-1.727,-1.7268,-1.7286,-1.7282,-1.7302,-1.7299,-1.7334,-1.7328,-1.7331,-1.7329,-1.7353,-1.7351,-1.7433,-1.7443,-1.7371,-1.7372,-1.7372,0,-1.7213,-1.7231,-1.7237,-1.7247,-1.7251,-1.7267,-1.7276,-1.7269,-1.728,-1.729,-1.7305,-1.7322,-1.7335,-1.7365,-1.7366,-1.7381,-1.7376,-1.7404,-1.7378,-1.7379,-1.7375,-1.7373,-1.7375,-1.7408,-1.7409,-1.7409,-1.741,0,-1.7273,-1.7271,-1.7284,-1.7298,-1.731,-1.732,-1.7329,-1.7339,-1.7332,-1.7345,-1.7363,-1.7374,-1.7395,-1.7412,-1.7427,-1.7431,-1.742,-1.7419,-1.7425,-1.7426,-1.7427,-1.7426,-1.7343,-1.7416,-1.7415,-1.7415,-1.7415,-1.7414,-1.7317,-1.7333,-1.734,-1.7356,-1.7362,-1.7372,-1.7387,-1.7388,-1.7403,-1.7419,-1.7414,-1.7435,-1.7444,-1.7463,-1.7469,-1.7486,-1.7475,-1.7484,-1.7486,-1.7489,-1.7491,-1.7425,-1.7489,-1.7488,-1.7488,-1.7488,-1.7488,0,-1.7376,-1.738,-1.7395,-1.7409,-1.7422,-1.7411,-1.7422,-1.7433,-1.7452,-1.7461,-1.7474,-1.7496,-1.7513,-1.7516,-1.7533,-1.7546,-1.7542,-1.7551,-1.7549,-1.755,-1.75,-1.7492,-1.7554,-1.7554,-1.7554,-1.7554,-1.7554,-1.7554,-1.7409,-1.7434,-1.7433,-1.7463,-1.7467,-1.7487,-1.7494,-1.7503,-1.751,-1.7535,-1.7549,-1.7551,-1.7558,-1.7575,-1.7591,-1.7592,-1.7598,-1.7609,-1.7608,-1.756,-1.7554,-1.7547,-1.754,-1.7611,-1.7611,-1.7656,-1.7657,-1.7657]},{"header":{"parameterUnit":"m.s-1","parameterCategory":1,"la1":30.2991,"la2":30.254,"lo1":-89.0895,"lo2":-89.0444,"dy":0.0017,"dx":0.0017,"nx":28,"ny":28,"refTime":"2024-05-03T21:00:00:Z","depth":0,"parameterNumber":3,"parameterNumberName":"V-component_of_WINDS"},"data":[0,0,0,0,0,0,0,0,0,0,0,0,0,0,0,0,0,0,0,0,0,0,0,0,0,0,0,0,0,0,0,0,0,0,0,0,0,0,0,0,0,0,0,0,0,0,0,0,0,0,0,0,0,0,0,0,0,0,2.9581,2.9581,0,2.9607,2.9607,2.9607,2.9665,2.9666,2.9667,2.9669,2.9688,2.9687,2.9686,0,0,0,0,0,0,0,0,0,0,0,0,0,2.9577,2.9577,2.9581,2.9581,2.9582,2.9606,2.9607,2.9607,2.9665,2.9666,2.9668,2.9669,2.9688,2.9687,2.9686,0,0,0,0,0,0,0,0,0,0,0,0,0,2.9588,2.9577,2.9581,2.9613,2.9617,2.9606,2.9607,2.9607,2.9664,2.9666,2.9668,2.967,2.9688,2.9687,2.9686,2.9644,0,0,2.9683,2.9683,0,0,0,0,0,0,0,0,2.9588,2.9588,2.9608,2.9611,2.9615,2.9635,2.9613,2.9619,2.9664,2.9646,2.9669,2.9671,2.9668,2.9669,2.9669,2.9645,2.9646,2.9683,2.9683,2.9682,2.9682,0,0,0,0,0,0,0,2.9587,2.9587,2.9591,2.9609,2.9612,2.9625,2.9629,2.9614,2.9646,2.9648,2.9652,2.9655,2.967,2.967,2.967,2.9646,2.9683,2.9683,2.9682,2.9682,2.9591,2.959,0,0,0,0,0,0,2.9582,2.9586,2.959,2.9592,2.9606,2.9624,2.9628,2.9626,2.9647,2.9652,2.9653,2.9657,2.9671,2.9671,2.9671,2.9625,2.9682,2.9681,2.9681,2.9593,2.9591,2.9589,0,0,0,0,0,0,2.9582,2.9582,2.9589,2.959,2.9592,2.9622,2.962,2.9626,2.9626,2.9651,2.9656,2.9648,2.9672,2.9672,2.9652,2.9627,2.9681,2.968,2.9595,2.9592,2.959,2.9532,0,0,0,0,0,0,2.9581,2.9581,2.9566,2.959,2.9592,2.957,2.9618,2.9625,2.9625,2.9631,2.9647,2.9651,2.9674,2.9653,2.9651,2.9626,2.9679,2.9598,2.9594,2.9591,2.9536,2.9527,2.952,0,0,0,0,0,2.9581,2.9547,2.9565,2.9565,2.9574,2.9568,2.957,2.9598,2.9623,2.9608,2.9624,2.9651,2.963,2.965,2.9648,2.9623,2.9599,2.9595,2.9591,2.954,2.9529,2.952,0,0,0,0,0,0,2.9516,2.955,2.9571,2.9544,2.9553,2.9578,2.956,2.9585,2.9586,2.9591,2.9624,2.9627,2.9602,2.9611,2.9632,2.9585,2.9619,2.9614,2.958,2.9571,2.9563,2.9561,2.9679,0,0,0,0,0,2.95,2.9494,2.9523,2.9496,2.95,2.9529,2.9528,2.9549,2.9559,2.9563,2.9577,2.9584,2.958,2.9576,2.9572,2.9538,2.9543,2.952,2.9512,2.9505,2.95,2.9485,2.9475,2.9575,2.9575,2.9576,0,0,2.9463,2.9481,2.9475,2.9484,2.9494,2.9486,2.9532,2.9521,2.9516,2.956,2.9543,2.9554,2.9564,2.9537,2.9525,2.9543,2.9474,2.95,2.9494,2.9493,2.948,2.947,2.9462,2.9573,2.9573,2.9574,0,0,2.9395,2.9407,2.9388,2.9398,2.9413,2.9434,2.9429,2.9451,2.9461,2.9445,2.9479,2.9472,2.9462,2.9469,2.9471,2.9408,2.9433,2.9406,2.9364,2.9348,2.934,2.9333,2.9312,2.9304,2.9401,2.9401,2.9401,0,2.9347,2.9339,2.9373,2.9362,2.9365,2.9409,2.9389,2.9396,2.9408,2.9409,2.9429,2.9421,2.943,2.9406,2.9392,2.9391,2.9387,2.9404,2.9339,2.9333,2.9327,2.9307,2.9299,2.9398,2.9398,2.9399,2.9399,0,2.9281,2.9275,2.9257,2.9272,2.9273,2.9256,2.9288,2.9284,2.9306,2.9324,2.9307,2.9321,2.9323,2.9319,2.9338,2.9298,2.9309,2.9333,2.9368,2.9313,2.9295,2.9288,2.9393,2.9394,2.9395,2.9396,0,0,2.917,2.9207,2.92,2.9208,2.923,2.9225,2.9212,2.9216,2.9213,2.9221,2.921,2.9203,2.9228,2.923,2.9251,2.9237,2.9189,2.9264,2.9265,2.925,2.9147,2.9129,2.9119,2.9206,2.9205,2.9204,2.9146,0,2.9106,2.9088,2.9119,2.9092,2.9088,2.9131,2.9119,2.9131,2.9147,2.9145,2.9162,2.9158,2.9189,2.9191,2.918,2.9197,2.9168,2.9202,2.9196,2.9195,2.9193,2.911,2.909,2.9035,2.9139,2.9138,2.9137,0,2.9029,2.9037,2.9011,2.9038,2.9037,2.9026,2.9034,2.9031,2.9046,2.9059,2.9063,2.909,2.9078,2.9112,2.9096,2.9118,2.9118,2.9126,2.9125,2.9125,2.9163,2.9108,2.9018,2.901,2.9126,2.9127,2.9128,0,2.8953,2.8956,2.8942,2.8948,2.8978,2.897,2.8981,2.8998,2.8999,2.9006,2.9008,2.9011,2.9013,2.9015,2.9042,2.9064,2.9023,2.9059,2.9033,2.9033,2.9022,2.9022,2.8931,2.9021,2.9021,2.9021,2.9021,0,2.8879,2.8861,2.8909,2.89,2.8882,2.8918,2.8899,2.8914,2.8929,2.8924,2.896,2.8953,2.8989,2.8986,2.9007,2.8991,2.8991,2.9001,2.9007,2.8998,2.8997,2.8998,2.9003,2.9019,2.902,2.902,2.902,0,2.879,2.8821,2.8809,2.884,2.8847,2.8832,2.8858,2.8851,2.8871,2.8864,2.8864,2.8895,2.8894,2.8922,2.8924,2.8939,2.8914,2.8926,2.891,2.8914,2.8887,2.889,2.8793,2.8783,2.8879,2.8878,2.8877,0,2.8741,2.8729,2.876,2.8761,2.8772,2.8771,2.8774,2.881,2.8811,2.8829,2.8819,2.8822,2.8826,2.8822,2.8843,2.8847,2.8859,2.8826,2.886,2.8852,2.886,2.8861,2.886,2.8818,2.8817,2.8816,2.8815,0,2.8651,2.8668,2.8673,2.8683,2.8687,2.8696,2.8707,2.8704,2.8743,2.8743,2.8744,2.8748,2.8753,2.8755,2.8763,2.8774,2.8801,2.8805,2.8799,2.879,2.8782,2.8787,2.8891,2.8806,2.8807,2.8808,2.8808,2.8809,2.8582,2.8575,2.8596,2.86,2.8613,2.8624,2.8619,2.8641,2.8643,2.8653,2.8673,2.8671,2.8687,2.8702,2.871,2.8708,2.8725,2.8716,2.8714,2.8712,2.8707,2.8782,2.871,2.871,2.871,2.871,2.8711,0,2.8495,2.8512,2.8516,2.8533,2.8536,2.8564,2.8579,2.8579,2.8578,2.8592,2.8597,2.8599,2.8602,2.8625,2.8631,2.8625,2.8637,2.8625,2.8626,2.8628,2.8692,2.8697,2.8615,2.8615,2.8615,2.8615,2.8615,2.8615,2.8451,2.8441,2.846,2.8457,2.8474,2.8474,2.848,2.849,2.8502,2.8504,2.8508,2.8524,2.8542,2.855,2.8554,2.8561,2.8561,2.8545,2.8555,2.8614,2.8623,2.8632,2.8637,2.8544,2.8544,2.8493,2.8492,2.8492]}]]